STARLINK-36495, 67311

Orbit data source: Space-Track

STARLINK-36495, 67311 is a payload satellite owned by SpaceX/Seattle (US) in LEO that was launched on Sun, 04 Jan 2026 UTC via an FALCON 9 launch vehicle from the Air Force Eastern Test Range (AFETR). Payload-class satellites include a variety of spacecraft equipped with specific instruments for various scientific and technological missions. These include communications satellites like Starlink; space stations such as the ISS; scientific satellites like the Hubble; Earth observation satellites from companies like Planet Labs, Umbra, and HawkEye 360; GPS; miniature CubeSats for education and research; and military/defense satellites.

Loading next visibility...
Identifier
67311, 2026-002G
Orbit
LEO
Country
Flag of USUS
Related business
Manufacturer
SpaceX/Seattle
Mission
Operational Commercial Communications
Bus & Motor
STARLINK V2MO, Unknown motor
Mass
575 kg wet, ~530 kg dry
Launch date (UTC)
2026-01-04 (5 months ago)
Launch vehicle
FALCON 9
Launch site
Air Force Eastern Test Range (AFETR)
Object type
Payload
Rocket body
Debris
Shape & HBR
Box + 2 Pan, 17.7 m
Radar Cross Section
36.964 m², Large (>1 m²)

Expand to show TLE details & history
Last TLE update: 15 hours ago

TLE from 15 hours ago
0 STARLINK-36495
1 67311U 26002G   26171.23213933  .00017272  00000-0  63531-3 0  9991
2 67311  43.0007 105.9705 0001219 274.0468  86.0244 15.27599663 26921
Epoch: 2026-06-20T05:34Z
TLE epoch observation values (Epoch: 2026-06-20T05:34:16.838Z)
Latitude
-0.00002°
Longitude
113.9506°
Altitude
482.708 km
Speed
7.626 km/s
True Right ascension
07h 03m 52s
True Declination
0° 00' 00"
Sunlit
Object was in daylight at epoch
Visualization orbit readout
Latitude
Unknown
Longitude
Unknown
Altitude
Unknown
Speed
Unknown
Apparent Right ascension
Unknown
Apparent Declination
Unknown
Sunlit
N/A
Visualization observer readout
Local Sidereal Time
07:24:13
Azimuth
Unknown
Elevation
Unknown
Doppler factor
Unknown
Orbital elements
Apogee altitude
485.772 km
Perigee altitude
484.099 km
Semi-major axis
6,863.072 km
Eccentricity
0.00012
Inclination
43.0007°
RAAN
105.9705°
Arg. of periapsis
274.0468°
True anomaly
86.03834°
Mean anomaly
86.0244°
Eccentric anomaly
86.03137°
Mean motion
3.81738 °/min
Orbital period
94.31 mins
BSTAR
0.00063531
Loading maneuver chart data...
Computing Atmospheric mass density...
Loading historical data...
Loading historical data...
Loading historical data...
Loading historical data...
Loading historical data...
Loading historical data...
Loading historical data...

Documentation

Showing up to 5 results
|